Regional Weather Roundup
Issued by NWS Upton, NY

Current Version | Previous Version | Text Only | Print | Product List | Glossary On
Versions: 1 2 3 4 5 6 7 8 9 10 11 12 13 14 15 16 17 18 19 20 21 22 23 24 25 26 27 28 29 30 31 32 33 34 35 36 37 38 39 40 41 42 43 44 45 46 47 48 49 50
000
ASUS41 KOKX 010704
RWROKX

REGIONAL WEATHER ROUNDUP
NATIONAL WEATHER SERVICE NEW YORK NY
300 AM EDT SAT OCT 01 2016

NOTE: "FAIR" INDICATES FEW OR NO CLOUDS BELOW 12,000 FEET WITH NO
SIGNIFICANT WEATHER AND/OR OBSTRUCTIONS TO VISIBILITY.

NYZ071-072-176-178-NJZ106-104-010800-
NEW YORK CITY METRO AREA

CITY           SKY/WX    TMP DP  RH WIND       PRES   REMARKS
Central Park   CLOUDY    56  53  90 VRB7      30.26S
LaGuardia APRT CLOUDY    59  55  87 N10       30.22F
Kennedy INTL   CLOUDY    58  55  90 N14       30.22S
Newark/Liberty CLOUDY    56  54  93 N13       30.23F
Bronx Bot Gard   N/A     55  52  88 CALM      30.26R
Wall St Helipt CLOUDY    59  55  88 NE9G18    30.23S
Teterboro      CLOUDY    56  52  86 N7        30.23S
$$

NYZ177-179-078>081-010800-
LONG ISLAND NEW YORK

CITY           SKY/WX    TMP DP  RH WIND       PRES   REMARKS
Farmingdale    CLOUDY    58  56  93 NE14      30.20F
MacArthur/ISP  CLOUDY    59  58  96 NE15      30.19F
Shirley        CLOUDY    59  58  96 VRB6      30.20F
Riverhead      NOT AVBL
Westhampton    LGT RAIN  59  58  96 NE15      30.21F
Southampton      N/A     59  59 100 NE8       30.17F
Bridgehampton    N/A     59  57  94 E3        30.06F
East Hampton   LGT RAIN  59  58  96 NE14G22   30.20F
Montauk          N/A     61  60  97 NE12G21   30.21F
$$

NYZ052-065-067-010800-
HUDSON VALLEY

CITY           SKY/WX    TMP DP  RH WIND       PRES   REMARKS
White Plains   CLOUDY    55  52  89 N7        30.23F
Newburgh       CLOUDY    52  52 100 NE9       30.29S FOG
Montgomery     LGT RAIN  52  51  97 NE12      30.28S FOG
Poughkeepsie   CLOUDY    51  50  96 N8        30.28F
Albany         CLOUDY    50  46  86 N9        30.34F
$$

NJZ001-105-106-008-010-013-015-019>022-104-010800-
NEW JERSEY

CITY           SKY/WX    TMP DP  RH WIND       PRES   REMARKS
Newark/Liberty CLOUDY    56  54  93 N13       30.23F
Teterboro      CLOUDY    56  52  86 N7        30.23S
Caldwell       CLOUDY    56  53  90 NE6       30.24F
Morristown     CLOUDY    54  54 100 NE7       30.23F
Somerville     CLOUDY    56  53  90 NE6       30.21F
Linden         NOT AVBL
Sussex         CLOUDY    53  52  96 NE10      30.26F
Abdover          N/A     53  51  93 NE8       30.24F
Trenton        CLOUDY    56  54  93 NE9       30.20F
Millville      CLOUDY    62  62 100 NE9       30.15F FOG
Atlantic City  CLOUDY    63  62  97 NE13      30.14F FOG
Wrightstown    NOT AVBL
Toms River     LGT RAIN  61  60  97 NE13      30.18F FOG
Belmar         CLOUDY    60  58  92 NE15      30.19F
$$

PAZ047>061-062-071-010800-
EASTERN PENNSYLVANIA

CITY           SKY/WX    TMP DP  RH WIND       PRES   REMARKS
Philadelphia   CLOUDY    59  57  93 NE13      30.18F
Allentown      CLOUDY    55  52  89 NE10      30.22F
Scranton       CLOUDY    55  50  83 NE6       30.22F
$$

CTZ002-004>006-009-010-012-RIZ004-006-007-MAZ004-011-015-010800-
SOUTHERN NEW ENGLAND
 IN CT

CITY           SKY/WX    TMP DP  RH WIND       PRES   REMARKS
Bradley INTL   CLOUDY    49  47  93 N10       30.30F FOG
Hartford       LGT RAIN  51  50  96 N13       30.28F FOG
Danbury        LGT RAIN  52  51  97 NE8       30.26F FOG
Wtrbury/Oxford NOT AVBL
Bridgeport     CLOUDY    57  52  83 NE13      30.23F
Meriden        LGT RAIN  53  50  89 N9        30.27F FOG
New Haven      CLOUDY    53  52  96 N13       30.24F
Chester        LGT RAIN  55  55 100 NE9       30.24F
Groton         LGT RAIN  60  57  89 NE13      30.21F FOG
Wilimantic     LGT RAIN  56  55  97 N10       30.27F FOG

 IN RI

CITY           SKY/WX    TMP DP  RH WIND       PRES   REMARKS
Providence     LGT RAIN  58  56  93 N10       30.27F FOG
Block Island   LGT RAIN  61  60  97 NE17G24   30.21F
Westerly       LGT RAIN  59  56  89 NE9       30.23F
 IN MA

CITY           SKY/WX    TMP DP  RH WIND       PRES   REMARKS
Boston         LGT RAIN  58  57  97 NE16      30.31F FOG
Worcester      LGT RAIN  50  48  93 NE10G18   30.31S VSB 3/4
Westfield      CLOUDY    48  47  96 N15       30.31F
Provincetown   LGT RAIN  58  57  97 E16       30.29F FOG
Nantucket      CLOUDY    61  59  93 NE17G26   30.21F FOG
$$

ANZ330-335-338-340-345-350-353-355-010800-
COASTAL MARINE OBSERVATIONS


STATION/POSITION TIME  SKY/WX   TEMP    WIND        PRES    VSBY  WAVE
                                AIR SEA DIR/SP/G                  HT/PER
                 (UTC)          (F)     (DEG/KT/KT) (MB)    (MI)  (FT/S)
NY HARB ENTRANCE 0550            63 68   40/ 21/ 27 1021.4          9/ 8
20S FIRE ISLAND  0550            64 67   50/ 27/ 33 1020.4         10/ 8
GREAT SOUTH BAY  0630            60 63   40/ 14/ 19   N/A
23 SSW MONTAUK P 0550            63 65   60/ 23/ 29 1021.7         10/ 8
15 E BARNEGAT LI 0600               69                N/A          10/10
HUDSON CANYON    0550            70 71              1019.3          9/ 9
KINGS POINT      0630            58 68              1023.2
EXECUTION ROCKS  0645            60      40/ 17/ 21   N/A
CENTRAL LI SOUND 0630            60 70   30/ 17/ 21   N/A           2/ 4
EASTERN LI SOUND NOT AVBL
ROBBINS REEF     0630            58      30/ 13/ 17 1023.7
$$


>>>>>>>>>>>>>>>>>>>>>>>>>>>> KEY <<<<<<<<<<<<<<<<<<<<<<<<<<<
>                                                          <
>     SKY/WX - Sky Condition/Present Weather               <
>     TMP    - Temperature in Fahrenheit                   <
>     DP     - Dew Point in Fahrenheit                     <
>     RH     - Relative Humidity in Percent                <
>     WIND   - Direction (from) and Speed in MPH           <
>     PRES   - Mean Sea Level Pressure (inches of Hg)      <
>     WCI    - Wind Chill Index                            <
>     VSB    - VISIBILITY IN MILES                         <
>     HX     - HEAT INDEX                                  <
>     TC     - TEMPERATURE IN CELSIUS                      <
>     VRB    - VARIABLE WIND DIRECTION                     <
>                                                          <
>>>>>>>>>>>>>>>>>>>>>>>>>>>> KEY <<<<<<<<<<<<<<<<<<<<<<<<<<<




USA.gov is the U.S. government's official web portal to all federal, state and local government web resources and services.